Skip Page Navigation
NASA JPL Caltech
NASA Logo - Jet Propulsion Laboratory + View the NASA Portal
+ Near-Earth Object (NEO) Program
Search JPL
JPL Home Earth Solar System Stars & Galaxies Technology
JPL Solar System Dynamics
BODIES ORBITS EPHEMERIDES TOOLS PHYSICAL DATA DISCOVERY FAQ SITE MAP
JPL Small-Body Database Browser
Search: [ help ]  
16466 Piyashiriyama (1990 FJ2)
Classification: Main-belt Asteroid          SPK-ID: 2016466
Ephemeris | Orbit Diagram | Orbital Elements | Physical Parameters | Discovery Circumstances | Close-Approach Data ]

[ show orbit diagram ]
Orbital Elements at Epoch 2457000.5 (2014-Dec-09.0) TDB
Reference: JPL 12 (heliocentric ecliptic J2000)
 Element Value Uncertainty (1-sigma)   Units 
e .1189883224451286 5.7162e-08  
a 2.675555983798214 1.9462e-08 AU
q 2.357196065678039 1.5571e-07 AU
i 11.97178350020694 9.9662e-06 deg
node 210.7232096093113 2.4301e-05 deg
peri 295.0949565773464 4.998e-05 deg
M 270.7124003389443 4.3794e-05 deg
tp 2457396.967998158926
(2016-Jan-09.46799816)
0.00019503 JED
period 1598.525213792559
4.38
1.7442e-05
4.775e-08
d
yr
n .2252075831483989 2.4573e-09 deg/d
Q 2.993915901918389 2.1778e-08 AU
  Orbit Determination Parameters
   # obs. used (total)      1329  
   data-arc span      23841 days (65.27 yr)  
   first obs. used      1949-11-30  
   last obs. used      2015-03-10  
   planetary ephem.      DE431  
   SB-pert. ephem.      SB431-BIG16  
   condition code      0  
   fit RMS      .46044  
   data source      ORB  
   producer      Otto Matic  
   solution date      2015-Apr-07 16:55:35  

Additional Information
 Earth MOID = 1.39605 AU 
 T_jup = 3.338 
[ show covariance matrix ]

Ephemeris | Orbit Diagram | Orbital Elements | Physical Parameters | Discovery Circumstances | Close-Approach Data ]

Physical Parameter Table
Parameter Symbol Value Units Sigma Reference Notes
absolute magnitude H 12.6 mag n/a MPO267771  

16466 Piyashiriyama           Discovered 1990 Mar. 29 by K. Endate and K. Watanabe at Kitami.
Mt. Piyashiri, 987 m in height, is situated in northeast Nayoro city, Hokkaido. Its summit is crested with crags and Japanese stone pines, and it is famous for the the beautiful views it offers.
NOTE: some special characters may not display properly (any characters within {} are an attempt to place the proper accent above a character)
Reference: 20051215/MPCPages.arcLast Updated: 2006-03-22

[ show close-approach data ]
Alternate Designations
 1990 FJ2 = 1979 WE6 = 1981 EQ49 = 1999 JU40 
Ephemeris | Orbit Diagram | Orbital Elements | Physical Parameters | Discovery Circumstances | Close-Approach Data ]
ABOUT SSD CREDITS/AWARDS PRIVACY/COPYRIGHT GLOSSARY LINKS
FirstGov 2015-Sep-02 08:32 UT
(server date/time)  
NASA Home Page
Site Manager:   Ryan S. Park
Webmaster  Alan B. Chamberlin